Location: Maiden
(35.5760°N, 81.2120°W)
Time: 02:14:34
(UTC-04:00)

Terra - Pass Details

Date: 14 June 2018
Orbit: 701 x 703 km, 98.2° (Epoch: 15 October)

Event Time Altitude Azimuth Distance (km) Brightness Sun altitude
Exits shadow 23:07:05 47° 91° (E) 935 2.2 -22.7°
Maximum altitude 23:07:31 48° 73° (ENE) 917 2.2 -22.7°
Drops below altitude 10° 23:12:05 10° 360° (N) 2,174 5.1 -23.2°
Sets 23:14:24 0° 355° (N) 3,095 6.2 -23.5°
